Stevens Pass
Stevens Pass Ski Area - Brooks Chair
Latest observation 08/31 21:00 PDT
| Time (PDT) | Temp °F 4800' | RH % 4800' | Pcp1 in 4800' | PcpSum in 4800' | 24Sno in 4800' | SnoHt in 4800' |
|---|---|---|---|---|---|---|
| 08/31 21:00 | 57 | 52 | 0.00 | 0.00 | 86.6 | -7999.0 |
| 08/31 20:00 | 56 | 60 | 0.00 | 0.00 | 102.6 | -7999.0 |
| 08/31 19:00 | 61 | 48 | 0.00 | 0.00 | 105.0 | -7999.0 |
| 08/31 18:00 | 65 | 42 | 0.00 | 0.00 | 116.3 | -7999.0 |
| 08/31 17:00 | 67 | 40 | 0.00 | 0.00 | 119.9 | -7999.0 |
| 08/31 16:00 | 69 | 39 | 0.00 | 0.00 | 119.5 | -7999.0 |
| 08/31 15:00 | 68 | 40 | 0.00 | 0.00 | 118.9 | -7999.0 |
| 08/31 14:00 | 67 | 44 | 0.00 | 0.00 | 118.7 | -7999.0 |
| 08/31 13:00 | 64 | 49 | 0.00 | 0.00 | 113.9 | -7999.0 |
| 08/31 12:00 | 61 | 55 | 0.00 | 0.00 | 109.0 | -7999.0 |
| 08/31 11:00 | 59 | 59 | 0.00 | 0.00 | 103.7 | -7999.0 |
| 08/31 10:00 | 55 | 65 | 0.00 | 0.00 | 100.1 | -7999.0 |
| 08/31 09:00 | 52 | 72 | 0.00 | 0.00 | 95.5 | -7999.0 |
| 08/31 08:00 | 50 | 77 | 0.00 | 0.00 | 87.0 | -7999.0 |
| 08/31 07:00 | 46 | 85 | 0.00 | 0.00 | 94.1 | -7999.0 |
| 08/31 06:00 | 47 | 80 | 0.00 | 0.00 | 93.5 | -7999.0 |
| 08/31 05:00 | 47 | 79 | 0.00 | 0.00 | 107.4 | -7999.0 |
| 08/31 04:00 | 45 | 86 | 0.00 | 0.00 | 250.1 | -7999.0 |
| 08/31 03:00 | 45 | 89 | 0.00 | 0.00 | 206.0 | -7999.0 |
| 08/31 02:00 | 45 | 91 | 0.00 | 0.00 | 197.1 | -7999.0 |
| 08/31 01:00 | 43 | 98 | 0.00 | 0.00 | 187.6 | -7999.0 |
| 08/31 00:00 | 42 | 96 | 0.00 | 0.00 | 155.4 | -7999.0 |
| 08/30 23:00 | 44 | 93 | 0.00 | 0.00 | 128.5 | -7999.0 |
| 08/30 22:00 | 45 | 91 | 0.00 | 0.00 | 88.0 | -7999.0 |

